Location: Podia
(1.5569°N, 32.3469°E)
Time: 17:59:05
(UTC+00:00)

NOAA 11 - Pass Details

Date: 01 June 2020
Orbit: 832 x 850 km, 98.4° (Epoch: 04 July)

Event Time Altitude Azimuth Distance (km) Brightness Sun altitude
Rises 16:33:27 0° 167° (SSE) 3,412 7.0 -9.8°
Reaches altitude 10° 16:35:50 10° 166° (SSE) 2,475 6.3 -10.3°
Maximum altitude 16:41:20 86° 79° (E) 855 4.2 -11.6°
Drops below altitude 10° 16:46:49 10° 349° (N) 2,464 7.1 -12.9°
Sets 16:49:10 0° 349° (N) 3,396 7.9 -13.4°
